Weather in Chemdalsk

Russia / Krasnoyarsk Krai     59°37′51″N   103°19′27″E
temp.,
°C
wind,
m/s
gust,
m/s
humid.,
%
clouds,
%
prec.,
mm/h
press.,
hPa
HPBL,
m
9 may, sun
sun901:00−2s0010045 0.0 101210
04:00−3ne1110046 0.0 101210
07:00+4e139193 0.0 1013330
10:00+8e257620 0.0 1013630
13:00+11ene4654100 0.6 10121685
16:00+12ene475193 0.6 10122263
19:00+8ne396294 0.6 1014301
22:00+3ne248450 0.0 101669
10 may, mon
mon1001:00+2nne26907 0.0 1017103
04:00+1nne25935 0.0 1018113
07:00+7ne37705 0.0 1019412
10:00+11ne464754 0.0 10191866
13:00+11nne454781 0.0 10191718
16:00+11n4550100 0.1 10191390
19:00+9nne475748 0.1 1020855
22:00+4nne227960 0.0 102120
11 may, tue
tue1101:00+2ne1186100 0.0 102210
04:00+2ne1185100 0.0 102211
07:00+5ene346396 0.0 1021597
10:00+4ene3487100 1.1 1022521
13:00+5ne3584100 1.9 1022832
16:00+7ne455697 0.3 10201442
19:00+5ne475869 0.3 1021979
22:000nne28745 0.0 1022180
12 may, wed
wed1201:00−1nne27815 0.0 1022161
04:00−2n25825 0.0 1022133
07:00+3nne35555 0.0 1022924
10:00+6nne3537100 0.0 10202049
13:00+8n4535100 0.0 10192180
16:00+8n4534100 0.0 10182219
19:00+7n234439 0.0 101979
22:00+2wnw11595 0.0 102010
13 may, thu
thu1301:000wsw11655 0.0 102010
04:00−1sw117021 0.0 102011
07:00+6w354872 0.0 1019394
10:00+11w3535100 0.0 10162385
13:00+12w4534100 0.0 10152549
16:00+13wsw4629100 0.0 10132380
19:00+11ssw2641100 0.0 1011182
22:00+6ssw3115791 0.0 1011212